Change the Weather History Date:

Monday, June 10, 2013

  Actual Average Record
Temperature  
Mean Temperature 77 °F 71 °F  
Max Temperature 81 °F 79 °F 94 °F (2008)
Min Temperature 72 °F 62 °F 49 °F (1988)
Degree Days  
Heating Degree Days 0    
Month to date heating degree days 0  
Since 1 June heating degree days 0  
Since 1 July heating degree days 3761  
Cooling Degree Days 12    
Month to date cooling degree days 76  
Year to date cooling degree days 207  
Since 1 June cooling degree days 76  
Growing Degree Days 26 (Base 50)    
Moisture  
Dew Point 67 °F    
Average Humidity 77    
Maximum Humidity 84    
Minimum Humidity 69    
Precipitation  
Precipitation 0.16 in 0.11 in 0.22 in (1998)
Month to date precipitation 2.25 1.14  
Year to date precipitation 20.32 16.96  
Sea Level Pressure  
Sea Level Pressure 30.04 in    
Wind  
Wind Speed 14 mph (SSW)    
Max Wind Speed 24 mph    
Max Gust Speed 32 mph    
Visibility 7 miles    
Events Rain    
T = Trace of Precipitation, MM = Missing Value Source: NWS Daily Summary

Daily Weather History Graph

Daily Weather History Graph

Search for Another Location

Airport or City:

Trip Planner

Search our weather history database for the weather conditions in past years. The results will help you decide how hot, cold, wet, or windy it might be!

Date:

Astronomy

Jun. 10, 2013 Rise Set
Actual Time 5:38 AM EDT 8:23 PM EDT
Civil Twilight 5:07 AM EDT 8:55 PM EDT
Nautical Twilight 4:28 AM EDT 9:34 PM EDT
Astronomical Twilight 3:44 AM EDT 10:18 PM EDT
Moon 7:24 AM EDT (6/10) 9:51 PM EDT (6/10)
Length of Visible Light 15h 47m
Length of Day
14h 44m
Waxing Crescent, 4% of the Moon is Illuminated
Jun 10
Waxing Crescent
Jun 16
First Quarter
Jun 23
Full
Jun 30
Last Quarter
Jul 8
New

Hourly Weather History & Observations

Time (EDT) Temp. Heat Index Dew Point Humidity Pressure Visibility Wind Dir Wind Speed Gust Speed Precip Events Conditions
12:01 AM 73.0 °F - 66.0 °F 79% 30.14 in 10.0 mi Variable 4.6 mph - N/A   Overcast
12:21 AM 73.0 °F - 66.9 °F 81% 30.14 in 6.0 mi SSE 6.9 mph - N/A   Haze
12:26 AM 73.0 °F - 66.9 °F 81% 30.14 in 2.0 mi SSE 5.8 mph - N/A   Haze
12:31 AM 73.0 °F - 66.9 °F 81% 30.14 in 1.0 mi South 6.9 mph - N/A   Haze
12:38 AM 73.0 °F - 66.9 °F 81% 30.14 in 0.5 mi South 5.8 mph - N/A   Haze
12:54 AM 73.0 °F - 66.9 °F 81% 30.13 in 0.5 mi South 6.9 mph - N/A   Haze
1:03 AM 73.0 °F - 66.9 °F 81% 30.13 in 1.0 mi South 8.1 mph - N/A   Haze
1:28 AM 73.0 °F - 68.0 °F 84% 30.13 in 1.8 mi South 8.1 mph - N/A   Haze
1:54 AM 73.0 °F - 68.0 °F 84% 30.11 in 1.0 mi South 4.6 mph - N/A   Haze
2:19 AM 73.0 °F - 66.9 °F 81% 30.12 in 1.8 mi South 5.8 mph - N/A   Haze
2:31 AM 73.0 °F - 66.9 °F 81% 30.12 in 2.5 mi South 6.9 mph - N/A   Haze
2:40 AM 73.0 °F - 66.9 °F 81% 30.12 in 4.0 mi North - - N/A   Haze
2:54 AM 73.0 °F - 66.9 °F 81% 30.10 in 5.0 mi North - - N/A   Haze
3:23 AM 73.0 °F - 66.9 °F 81% 30.11 in 2.0 mi SSW 8.1 mph - N/A   Haze
3:30 AM 72.0 °F - 66.9 °F 84% 30.11 in 1.0 mi SSW 9.2 mph - N/A   Haze
3:50 AM 71.6 °F - 66.2 °F 83% 30.11 in 2.0 mi SSW 6.9 mph - N/A   Haze
3:51 AM 71.6 °F - 66.2 °F 83% 30.11 in 2.5 mi SSW 5.8 mph - N/A   Haze
3:54 AM 72.0 °F - 66.9 °F 84% 30.10 in 4.0 mi SSW 6.9 mph - N/A   Haze
4:45 AM 72.0 °F - 66.0 °F 81% 30.10 in 10.0 mi SSW 5.8 mph - N/A   Overcast
4:52 AM 71.6 °F - 66.2 °F 83% 30.10 in 10.0 mi SSW 8.1 mph - N/A   Overcast
4:54 AM 72.0 °F - 66.0 °F 81% 30.09 in 10.0 mi SSW 6.9 mph - N/A   Overcast
5:19 AM 73.0 °F - 66.9 °F 81% 30.10 in 10.0 mi SSW 8.1 mph - N/A   Overcast
5:40 AM 73.0 °F - 66.9 °F 81% 30.09 in 10.0 mi SSW 4.6 mph - N/A   Mostly Cloudy
5:54 AM 73.0 °F - 66.9 °F 81% 30.09 in 10.0 mi SSW 5.8 mph - N/A   Mostly Cloudy
6:54 AM 73.0 °F - 66.0 °F 79% 30.09 in 10.0 mi SSW 8.1 mph - N/A   Mostly Cloudy
7:06 AM 73.0 °F - 66.0 °F 79% 30.09 in 10.0 mi SSW 10.4 mph - N/A   Mostly Cloudy
7:54 AM 73.9 °F - 66.0 °F 76% 30.09 in 10.0 mi SSW 11.5 mph - N/A   Mostly Cloudy
8:07 AM 73.9 °F - 66.0 °F 76% 30.09 in 10.0 mi SSW 9.2 mph - N/A   Mostly Cloudy
8:54 AM 73.9 °F - 66.0 °F 76% 30.08 in 10.0 mi SSW 12.7 mph - 0.00 in Rain Light Rain
9:54 AM 75.0 °F - 66.0 °F 73% 30.07 in 10.0 mi SSW 15.0 mph - 0.00 in   Overcast
10:54 AM 77.0 °F - 66.9 °F 71% 30.06 in 10.0 mi SSW 16.1 mph 24.2 mph N/A   Overcast
11:54 AM 79.0 °F - 68.0 °F 69% 30.04 in 10.0 mi SSW 17.3 mph 25.3 mph N/A   Overcast
12:54 PM 80.1 °F 82.9 °F 69.1 °F 69% 30.03 in 10.0 mi SSW 18.4 mph 24.2 mph N/A   Overcast
1:28 PM 80.1 °F 82.9 °F 69.1 °F 69% 30.02 in 10.0 mi SSW 19.6 mph 25.3 mph N/A   Partly Cloudy
1:54 PM 81.0 °F 84.1 °F 69.1 °F 67% 30.00 in 10.0 mi SSW 18.4 mph - N/A   Overcast
2:23 PM 79.0 °F - 69.1 °F 72% 30.00 in 10.0 mi SSW 19.6 mph - N/A   Mostly Cloudy
2:54 PM 75.0 °F - 68.0 °F 79% 29.99 in 10.0 mi SSW 16.1 mph - 0.00 in Rain Light Rain
3:12 PM 75.9 °F - 68.0 °F 76% 29.99 in 10.0 mi SSW 19.6 mph 25.3 mph 0.00 in   Mostly Cloudy
3:25 PM 75.9 °F - 68.0 °F 76% 29.99 in 10.0 mi SSW 17.3 mph 24.2 mph 0.00 in   Mostly Cloudy
3:54 PM 75.0 °F - 66.9 °F 76% 29.96 in 10.0 mi SSW 16.1 mph - 0.00 in   Partly Cloudy
4:12 PM 75.0 °F - 66.9 °F 76% 29.97 in 10.0 mi SSW 17.3 mph - 0.00 in Rain Light Rain
4:35 PM 73.9 °F - 66.9 °F 79% 29.96 in 9.0 mi SSW 21.9 mph 28.8 mph 0.00 in Rain Light Rain
4:51 PM 73.4 °F - 66.2 °F 78% 29.95 in 5.0 mi SW 18.4 mph 28.8 mph 0.01 in Rain Light Rain
4:54 PM 73.9 °F - 66.9 °F 79% 29.94 in 6.0 mi SW 18.4 mph - 0.02 in Rain Light Rain
5:54 PM 73.0 °F - 66.0 °F 79% 29.94 in 10.0 mi SSW 12.7 mph - 0.00 in   Scattered Clouds
6:25 PM 73.9 °F - 68.0 °F 82% 29.93 in 9.0 mi SSW 16.1 mph - 0.01 in Rain Light Rain
6:54 PM 73.0 °F - 66.0 °F 79% 29.90 in 10.0 mi SSW 16.1 mph - 0.01 in   Clear
7:54 PM 73.0 °F - 66.0 °F 79% 29.90 in 10.0 mi SSW 15.0 mph 23.0 mph N/A   Clear
8:54 PM 73.0 °F - 66.0 °F 79% 29.89 in 10.0 mi SSW 19.6 mph 27.6 mph 0.00 in   Partly Cloudy
9:24 PM 73.0 °F - 66.9 °F 81% 29.90 in 9.0 mi SSW 16.1 mph 32.2 mph N/A   Scattered Clouds
9:32 PM 73.0 °F - 66.9 °F 81% 29.90 in 9.0 mi SSW 18.4 mph 25.3 mph N/A   Mostly Cloudy
9:39 PM 73.0 °F - 66.0 °F 79% 29.90 in 9.0 mi SSW 18.4 mph 27.6 mph N/A   Mostly Cloudy
9:54 PM 73.0 °F - 66.0 °F 79% 29.90 in 8.0 mi SSW 20.7 mph 32.2 mph N/A   Overcast
10:15 PM 72.0 °F - 66.0 °F 81% 29.92 in 8.0 mi SW 18.4 mph - 0.00 in Rain Light Rain
10:54 PM 73.9 °F - 66.9 °F 79% 29.89 in 10.0 mi WSW 12.7 mph 20.7 mph 0.13 in Rain Light Rain
11:54 PM 73.0 °F - 66.9 °F 81% 29.88 in 10.0 mi SSW 13.8 mph - 0.00 in   Clear